Regional Weather Roundup
Issued by NWS Cleveland, OH

Home | Current Version | Previous Version | Graphics & Text | Print | Product List | Glossary On
Versions: 1 2 3 4 5 6 7 8 9 10 11 12 13 14 15 16 17 18 19 20 21 22 23 24 25 26 27 28 29 30 31 32 33 34 35 36 37 38 39 40 41 42 43 44 45 46 47 48 49 50
000
ASUS41 KCLE 031002
RWRCLE
OHIO REGIONAL WEATHER ROUNDUP
NATIONAL WEATHER SERVICE CLEVELAND, OH
600 AM EDT WED JUN 03 2015

NOTE: "FAIR" INDICATES FEW OR NO CLOUDS BELOW 12,000 FEET WITH NO
SIGNIFICANT WEATHER AND/OR OBSTRUCTIONS TO VISIBILITY.

OHZ001>008-015>018-024>027-034-035-043-044-031100-
   NORTHWEST OHIO

CITY           SKY/WX    TMP DP  RH WIND       PRES   REMARKS
DEFIANCE       MOCLDY    49  46  90 CALM      30.11S
FINDLAY        CLEAR     51  48  89 CALM      30.09S
TOLEDO EXPRESS CLEAR     47  45  93 CALM      30.11S
TOLEDO EXEC    CLEAR     51  47  86 CALM      30.12R
LIMA           CLOUDY    53  51  93 CALM      30.10R
$$

OHZ009>014-019>023-028>033-038-089-031100-
   NORTHEAST OHIO

CITY           SKY/WX    TMP DP  RH WIND       PRES   REMARKS
CLE-HOPKINS    PTCLDY    53  49  86 E6        30.14R
CLE-LAKEFRONT  CLEAR     57  52  83 E9        30.12R
CUY CO. ARPT   NOT AVBL
LORAIN-ELYRIA  CLEAR     50  48  93 SE8       30.12S
ASHTABULA      CLEAR     47  45  93 SE6       30.17R
AKRON-CANTON   PTCLDY    52  49  89 E10       30.12S
WOOSTER        CLEAR     51  49  92 E6        30.12R
MANSFIELD      CLEAR     53  51  93 MISG      30.10S
YOUNGSTOWN     PTCLDY    51  49  92 E8        30.14F
$$

OHZ042-051>053-060>062-070>072-077>081-031100-
  SOUTHWEST OHIO

CITY           SKY/WX    TMP DP  RH WIND       PRES   REMARKS
CINC-COVINGTON CLOUDY    54  52  93 N7        30.07R FOG
CINC-LUNKEN    MOCLDY    51  51 100 CALM      30.08S FOG
HAMILTON       CLOUDY    53  53 100 CALM      30.09R
DAYTON         CLOUDY    56  54  93 NW3       30.09R FOG
WRIGHT-PAT AFB CLOUDY    55  54  94 CALM      30.07S
DAYTON GENERAL PTCLDY    53  52  96 N3        30.07R
WILMINGTON     CLOUDY    56  53  90 E3        30.06F
$$

OHZ036-037-039>041-045>050-054>059-063>069-073>076-082>088-031100-
  CENTRAL AND SOUTHEAST OHIO

CITY           SKY/WX    TMP DP  RH WIND       PRES   REMARKS
COLUMBUS       CLOUDY    60  54  80 E3        30.07S
OSU AIRPORT    CLOUDY    58  54  86 NE3       30.07F
BOLTON FIELD   NOT AVBL
RICKENBACK AFB NOT AVBL
NEWARK         CLOUDY    60  54  80 NE5       30.08R
MARION         CLOUDY    56  53  90 NE3       30.09S
LANCASTER      CLOUDY    60  56  86 CALM      30.08R
ZANESVILLE     NOT AVBL
NEW PHILLY     CLOUDY    55  51  86 CALM      30.11S FOG
$$


USA.gov is the U.S. government's official web portal to all federal, state and local government web resources and services.